Weather in Leushinskaya

Russia / Vologda Oblast     60°25′41″N   41°41′56″E
temp.,
°C
wind,
m/s
gust,
m/s
humid.,
%
clouds,
%
prec.,
mm/h
press.,
hPa
HPBL,
m
18 january, mon
mon1800:00−20sw259996 0.0 1014129
03:00−17sw379797 0.1 1014208
06:00−15sw2696100 0.2 1013217
09:00−14sw259699 0.3 1014181
12:00−13sw249585 0.1 1015193
15:00−12sw259589 0.3 1015209
18:00−14sw249776 0.1 1015132
21:00−15sw229777 0.1 101632
19 january, tue
tue1900:00−15ssw249787 0.1 101694
03:00−15sw229787 0.1 101679
06:00−15sw249796 0.1 101593
09:00−13sw249798 0.2 1015106
12:00−12sw249698 0.1 1015177
15:00−11wsw259697 0.3 1014197
18:00−14wsw239788 0.1 101472
21:00−15wsw239875 0.1 101437
20 january, wed
wed2000:00−16wsw239866 0.0 101344
03:00−16wsw259872 0.1 1014100
06:00−15wsw269788 0.1 1013151
09:00−15wsw269691 0.2 1014167
12:00−12w259499 0.1 1014238
15:00−13w259695 0.2 1015195
18:00−16wsw239878 0.0 101563
21:00−17wsw259882 0.1 101593
21 january, thu
thu2100:00−17wsw259883 0.1 1015109
03:00−19sw239884 0.1 101557
06:00−18ssw229889 0.0 101375
09:00−17sse269794 0.0 1011144
12:00−13sse3892100 0.0 1007271
15:00−12sse31095100 1.4 1002592
18:00−12sse1497100 2.6 1000224
21:00−14ene119799 3.3 99920
22 january, fri
fri2200:00−16n259892 0.0 1001105
03:00−17n399793 0.1 1005294
06:00−22n3798100 0.0 1008233
09:00−25nne369899 0.1 1012186
12:00−25nne359676 0.0 1014223
15:00−27nne259678 0.0 1016217
18:00−30ne369780 0.0 1018182
21:00−31ne269787 0.0 1019164